Weather History for Ogallala, NE

Change the Weather History Date:

Tuesday, March 4, 2014

  Actual Average Record
Temperature  
Mean Temperature 30 °F -  
Max Temperature 42 °F 45 °F 77 °F (2009)
Min Temperature 18 °F 20 °F -13 °F (1960)
Degree Days  
Heating Degree Days 35    
Moisture  
Dew Point 27 °F    
Average Humidity 80    
Maximum Humidity 93    
Minimum Humidity 65    
Precipitation  
Precipitation 0.00 in - - ()
Sea Level Pressure  
Sea Level Pressure 29.88 in    
Wind  
Wind Speed 5 mph (WNW)    
Max Wind Speed 25 mph    
Max Gust Speed 21 mph    
Visibility 8 miles    
Events      
Averages and records for this station are not official NWS values.
T = Trace of Precipitation, MM = Missing Value Source: NWS Daily Summary

Daily Weather History Graph

Daily Weather History Graph

Search for Another Location

Airport:

Trip Planner

Search our weather history database for the weather conditions in past years. The results will help you decide how hot, cold, wet, or windy it might be!

Date:

Astronomy

Mar. 04, 2014 Rise Set
Actual Time 6:16 AM MST 5:41 PM MST
Civil Twilight 5:49 AM MST 6:09 PM MST
Nautical Twilight 5:17 AM MST 6:41 PM MST
Astronomical Twilight 4:45 AM MST 7:13 PM MST
Moon 8:01 AM MST (3/4) 9:53 PM MST (3/4)
Length of Visible Light 12h 20m
Length of Day
11h 24m
Waxing Crescent, 15% of the Moon is Illuminated
Mar 4
Waxing Crescent
Mar 8
First Quarter
Mar 16
Full
Mar 23
Last Quarter
Mar 30
New

Hourly Weather History & Observations

Time (MST) Temp. Windchill Dew Point Humidity Pressure Visibility Wind Dir Wind Speed Gust Speed Precip Events Conditions
12:15 AM 21.2 °F - 18.5 °F 89% 29.92 in 7.0 mi Calm Calm - N/A   Clear
12:35 AM 21.2 °F - 18.7 °F 90% 29.92 in 7.0 mi Calm Calm - N/A   Clear
12:55 AM 20.8 °F - 18.3 °F 90% 29.91 in 7.0 mi Calm Calm - N/A   Clear
1:15 AM 18.0 °F 5.4 °F 15.4 °F 90% 29.94 in 7.0 mi West 11.5 mph - N/A   Clear
1:35 AM 19.6 °F 9.7 °F 17.8 °F 93% 29.94 in 7.0 mi West 8.1 mph - N/A   Clear
1:55 AM 18.9 °F 13.7 °F 16.7 °F 91% 29.92 in 7.0 mi SW 3.5 mph - N/A   Clear
2:15 AM 19.8 °F - 17.4 °F 91% 29.91 in 5.0 mi Calm Calm - N/A   Clear
2:35 AM 19.2 °F - 16.9 °F 91% 29.90 in 7.0 mi Calm Calm - N/A   Clear
2:55 AM 19.9 °F 14.9 °F 17.8 °F 91% 29.89 in 5.0 mi West 3.5 mph - N/A   Clear
3:15 AM 19.6 °F 14.5 °F 17.2 °F 91% 29.88 in 5.0 mi West 3.5 mph - N/A   Scattered Clouds
3:35 AM 20.8 °F 16.0 °F 18.5 °F 91% 29.88 in 5.0 mi WNW 3.5 mph - N/A   Mostly Cloudy
3:55 AM 22.1 °F - 19.4 °F 89% 29.86 in 7.0 mi Calm Calm - N/A   Mostly Cloudy
4:15 AM 22.5 °F - 19.8 °F 89% 29.86 in 7.0 mi Calm Calm - N/A   Scattered Clouds
4:35 AM 23.9 °F 19.5 °F 21.2 °F 89% 29.86 in 7.0 mi West 3.5 mph - N/A   Mostly Cloudy
4:55 AM 24.6 °F 17.7 °F 21.9 °F 89% 29.86 in 7.0 mi West 5.8 mph - N/A   Overcast
5:15 AM 25.3 °F - 22.6 °F 89% 29.86 in 5.0 mi Calm Calm - N/A   Mostly Cloudy
5:35 AM 25.7 °F - 23.0 °F 89% 29.86 in 5.0 mi Calm Calm - N/A   Mostly Cloudy
5:55 AM 25.2 °F - 22.3 °F 89% 29.85 in 5.0 mi Calm Calm - N/A   Mostly Cloudy
6:15 AM 24.6 °F 16.7 °F 22.1 °F 90% 29.85 in 5.0 mi West 6.9 mph - N/A   Mostly Cloudy
6:35 AM 23.9 °F 15.8 °F 21.2 °F 89% 29.85 in 4.0 mi West 6.9 mph - N/A   Scattered Clouds
6:55 AM 23.5 °F 19.1 °F 20.8 °F 89% 29.85 in 4.0 mi SW 3.5 mph - N/A   Clear
7:15 AM 23.9 °F 19.5 °F 21.2 °F 89% 29.85 in 4.0 mi WSW 3.5 mph - N/A   Clear
7:35 AM 24.3 °F 18.4 °F 21.2 °F 88% 29.85 in 5.0 mi West 4.6 mph - N/A   Clear
7:55 AM 26.1 °F 19.4 °F 22.6 °F 87% 29.85 in 5.0 mi West 5.8 mph - N/A   Clear
8:15 AM 27.0 °F 21.6 °F 23.2 °F 86% 29.85 in 5.0 mi West 4.6 mph - N/A   Clear
8:35 AM 28.4 °F 23.3 °F 24.1 °F 84% 29.84 in 7.0 mi WSW 4.6 mph - N/A   Clear
8:55 AM 30.2 °F 24.3 °F 25.3 °F 82% 29.85 in 10.0 mi WSW 5.8 mph - N/A   Clear
9:15 AM 32.0 °F 26.4 °F 26.4 °F 80% 29.85 in 10.0 mi West 5.8 mph - N/A   Clear
9:35 AM 34.0 °F 31.0 °F 27.5 °F 77% 29.85 in 10.0 mi West 3.5 mph - N/A   Clear
9:55 AM 37.6 °F 32.3 °F 29.8 °F 74% 29.84 in 10.0 mi West 6.9 mph - N/A   Clear
10:15 AM 38.8 °F 33.8 °F 30.2 °F 71% 29.84 in 10.0 mi West 6.9 mph - N/A   Clear
10:35 AM 40.3 °F 37.1 °F 30.4 °F 68% 29.84 in 10.0 mi West 4.6 mph - N/A   Clear
10:55 AM 41.0 °F 36.4 °F 30.7 °F 67% 29.84 in 10.0 mi West 6.9 mph - N/A   Clear
11:15 AM 41.2 °F 34.5 °F 30.6 °F 66% 29.83 in 10.0 mi West 11.5 mph - N/A   Clear
11:35 AM 41.4 °F 34.3 °F 30.7 °F 66% 29.83 in 10.0 mi West 12.7 mph - N/A   Clear
11:55 AM 41.5 °F 35.4 °F 30.6 °F 65% 29.82 in 10.0 mi West 10.4 mph - N/A   Clear
12:15 PM 41.5 °F 35.4 °F 31.1 °F 66% 29.82 in 10.0 mi West 10.4 mph - N/A   Clear
12:35 PM 41.7 °F 34.8 °F 31.1 °F 66% 29.81 in 10.0 mi WSW 12.7 mph - N/A   Clear
12:55 PM 41.4 °F 35.7 °F 31.6 °F 68% 29.81 in 10.0 mi West 9.2 mph - N/A   Clear
1:15 PM 41.2 °F - 32.0 °F 70% 29.81 in 10.0 mi Calm Calm - N/A   Clear
1:35 PM 42.6 °F 38.4 °F 32.0 °F 66% 29.81 in 10.0 mi West 6.9 mph - N/A   Clear
1:55 PM 41.4 °F 36.8 °F 32.2 °F 70% 29.82 in 10.0 mi West 6.9 mph - N/A   Clear
2:15 PM 41.2 °F 37.3 °F 32.7 °F 72% 29.82 in 10.0 mi West 5.8 mph - N/A   Clear
2:35 PM 42.1 °F 38.4 °F 32.5 °F 69% 29.82 in 10.0 mi WNW 5.8 mph - N/A   Clear
2:55 PM 41.0 °F 34.7 °F 33.1 °F 73% 29.82 in 10.0 mi West 10.4 mph - N/A   Clear
3:15 PM 41.2 °F 35.0 °F 32.9 °F 72% 29.83 in 10.0 mi West 10.4 mph - N/A   Clear
3:35 PM 40.8 °F 35.6 °F 32.9 °F 73% 29.84 in 10.0 mi West 8.1 mph - N/A   Clear
3:55 PM 40.8 °F 36.9 °F 33.3 °F 74% 29.84 in 10.0 mi West 5.8 mph - N/A   Clear
4:15 PM 41.4 °F 38.4 °F 34.0 °F 75% 29.84 in 10.0 mi NNW 4.6 mph - N/A   Clear
4:35 PM 42.1 °F 36.6 °F 33.8 °F 72% 29.83 in 10.0 mi North 9.2 mph - N/A   Clear
4:55 PM 42.6 °F 36.8 °F 33.1 °F 69% 29.84 in 10.0 mi North 10.4 mph - N/A   Scattered Clouds
5:15 PM 41.9 °F 40.0 °F 32.4 °F 69% 29.86 in 10.0 mi NNW 3.5 mph - N/A   Mostly Cloudy
5:35 PM 41.0 °F 38.0 °F 32.2 °F 71% 29.86 in 10.0 mi NNW 4.6 mph - N/A   Mostly Cloudy
5:55 PM 40.1 °F 34.7 °F 32.0 °F 73% 29.88 in 10.0 mi North 8.1 mph - N/A   Overcast
6:15 PM 39.6 °F 31.3 °F 32.0 °F 74% 29.88 in 10.0 mi North 15.0 mph - N/A   Mostly Cloudy
6:35 PM 38.7 °F 35.2 °F 32.0 °F 77% 29.90 in 10.0 mi North 4.6 mph - N/A   Scattered Clouds
6:55 PM 39.4 °F 35.2 °F 32.0 °F 75% 29.93 in 10.0 mi North 5.8 mph - N/A   Mostly Cloudy
7:15 PM 37.9 °F 31.5 °F 32.0 °F 79% 29.93 in 10.0 mi NNE 9.2 mph - N/A   Overcast
7:35 PM 37.4 °F 28.5 °F 31.8 °F 80% 29.92 in 10.0 mi NNE 15.0 mph - N/A   Overcast
7:55 PM 36.7 °F 25.4 °F 30.9 °F 80% 29.93 in 10.0 mi North 23.0 mph - N/A   Overcast
8:15 PM 35.6 °F 25.9 °F 31.1 °F 84% 29.95 in 10.0 mi NNE 16.1 mph 20.7 mph N/A   Light Drizzle
8:35 PM 34.9 °F 27.7 °F 30.2 °F 83% 29.97 in 10.0 mi NNE 9.2 mph - N/A   Overcast
8:50 PM 34.7 °F 28.1 °F 30.2 °F 84% 29.98 in 10.0 mi NNE 8.1 mph - N/A   Overcast
9:15 PM 34.3 °F 29.2 °F 30.0 °F 84% 30.00 in 10.0 mi North 5.8 mph - N/A   Overcast
9:35 PM 34.2 °F 23.6 °F 29.8 °F 84% 29.98 in 10.0 mi North 17.3 mph - N/A   Overcast
9:55 PM 34.2 °F 21.5 °F 29.8 °F 84% 29.99 in 10.0 mi North 25.3 mph - N/A   Overcast
10:15 PM 34.0 °F 22.1 °F 29.8 °F 85% 30.00 in 10.0 mi North 21.9 mph - N/A   Overcast
10:35 PM 33.8 °F 22.8 °F 29.8 °F 85% 30.01 in 10.0 mi North 18.4 mph - N/A   Overcast
10:55 PM 33.4 °F 23.1 °F 30.0 °F 87% 30.02 in 10.0 mi North 16.1 mph - N/A   Overcast
11:15 PM 33.3 °F 27.9 °F 30.0 °F 88% 30.04 in 10.0 mi NNE 5.8 mph 12.7 mph N/A   Overcast
11:35 PM 33.3 °F - 29.7 °F 87% 30.04 in 10.0 mi Calm Calm - N/A   Overcast
11:55 PM 33.3 °F 27.9 °F 29.7 °F 87% 30.04 in 10.0 mi NNE 5.8 mph - N/A   Overcast